• In Österreich
  • Länderverzeichnis
  • Für 7 Tage
  • Wassertemperatur
  • Satellitenkarten
  • Wetterkarte
  • News
  • Widgets
  • user-avatar
    Anmelden

    Stündliche Wetter Igls

    Heute, 15 Oktober, Montag

    Zeit Temperatur Niederschläge Wind Luftdruck Luftfeuchtigkeit
    00:00 +10°C° 0 mm 3 m/S 684 mmHg 82%
    01:00 +10°C° 0 mm 3 m/S 684 mmHg 85%
    02:00 +10°C° 0 mm 3 m/S 684 mmHg 85%
    03:00 +10°C° 0 mm 3 m/S 684 mmHg 86%
    04:00 +9°C° 0 mm 3 m/S 684 mmHg 86%
    05:00 +9°C° 0 mm 3 m/S 684 mmHg 86%
    06:00 +9°C° 0 mm 3 m/S 685 mmHg 86%
    07:00 +9°C° 0 mm 3 m/S 684 mmHg 86%
    08:00 +11°C° 0 mm 3 m/S 685 mmHg 77%
    09:00 +13°C° 0 mm 3 m/S 685 mmHg 68%
    10:00 +16°C° 0 mm 3 m/S 685 mmHg 60%
    11:00 +17°C° 0 mm 3 m/S 685 mmHg 56%
    12:00 +18°C° 0 mm 3 m/S 685 mmHg 52%
    13:00 +18°C° 0 mm 3 m/S 686 mmHg 51%
    14:00 +18°C° 0 mm 3 m/S 685 mmHg 55%
    15:00 +17°C° 0 mm 2 m/S 685 mmHg 58%
    16:00 +17°C° 0 mm 2 m/S 685 mmHg 61%
    17:00 +15°C° 0 mm 2 m/S 685 mmHg 68%
    18:00 +13°C° 0 mm 2 m/S 685 mmHg 75%
    19:00 +10°C° 0 mm 2 m/S 685 mmHg 83%
    20:00 +10°C° 0 mm 2 m/S 685 mmHg 83%
    21:00 +10°C° 0 mm 2 m/S 685 mmHg 84%
    22:00 +9°C° 0 mm 2 m/S 685 mmHg 85%
    23:00 +9°C° 0 mm 2 m/S 685 mmHg 86%

    Morgen, 16 Oktober, Dienstag

    Zeit Temperatur Niederschläge Wind Luftdruck Luftfeuchtigkeit
    00:00 +9°C° 0 mm 2 m/S 686 mmHg 86%
    01:00 +8°C° 0 mm 2 m/S 686 mmHg 86%
    02:00 +8°C° 0 mm 2 m/S 686 mmHg 86%
    03:00 +8°C° 0 mm 2 m/S 686 mmHg 85%
    04:00 +8°C° 0 mm 2 m/S 686 mmHg 84%
    05:00 +8°C° 0 mm 2 m/S 686 mmHg 83%
    06:00 +8°C° 0 mm 2 m/S 686 mmHg 82%
    07:00 +8°C° 0 mm 2 m/S 686 mmHg 81%
    08:00 +12°C° 0 mm 1 m/S 686 mmHg 71%
    09:00 +14°C° 0 mm 1 m/S 687 mmHg 61%
    10:00 +18°C° 0 mm 1 m/S 687 mmHg 50%
    11:00 +19°C° 0 mm 1 m/S 688 mmHg 48%
    12:00 +20°C° 0 mm 1 m/S 688 mmHg 45%
    13:00 +20°C° 0 mm 1 m/S 688 mmHg 42%
    14:00 +20°C° 0 mm 1 m/S 687 mmHg 46%
    15:00 +19°C° 0 mm 1 m/S 687 mmHg 51%
    16:00 +19°C° 0 mm 1 m/S 687 mmHg 56%
    17:00 +15°C° 0 mm 1 m/S 687 mmHg 66%
    18:00 +13°C° 0 mm 1 m/S 687 mmHg 76%
    19:00 +11°C° 0 mm 1 m/S 686 mmHg 86%
    20:00 +11°C° 0 mm 1 m/S 686 mmHg 86%
    21:00 +10°C° 0 mm 1 m/S 687 mmHg 85%
    22:00 +10°C° 0 mm 1 m/S 687 mmHg 85%
    23:00 +10°C° 0 mm 1 m/S 687 mmHg 84%

    übermorgen, 17 Oktober, Mittwoch

    Zeit Temperatur Niederschläge Wind Luftdruck Luftfeuchtigkeit
    00:00 +10°C° 0 mm 1 m/S 686 mmHg 84%
    01:00 +10°C° 0 mm 1 m/S 686 mmHg 83%
    02:00 +10°C° 0 mm 1 m/S 686 mmHg 83%
    03:00 +10°C° 0 mm 1 m/S 686 mmHg 83%
    04:00 +10°C° 0 mm 1 m/S 686 mmHg 83%
    05:00 +10°C° 0 mm 1 m/S 686 mmHg 83%
    06:00 +10°C° 0 mm 1 m/S 686 mmHg 83%
    07:00 +10°C° 0 mm 1 m/S 686 mmHg 83%
    08:00 +12°C° 0 mm 1 m/S 686 mmHg 73%
    09:00 +15°C° 0 mm 1 m/S 687 mmHg 64%
    10:00 +18°C° 0 mm 1 m/S 687 mmHg 54%
    11:00 +19°C° 0 mm 1 m/S 687 mmHg 52%
    12:00 +20°C° 0 mm 1 m/S 687 mmHg 50%
    13:00 +20°C° 0 mm 1 m/S 686 mmHg 48%
    14:00 +20°C° 0 mm 1 m/S 686 mmHg 52%
    15:00 +19°C° 0 mm 1 m/S 686 mmHg 57%
    16:00 +19°C° 0 mm 1 m/S 685 mmHg 62%
    17:00 +15°C° 0 mm 1 m/S 685 mmHg 72%
    18:00 +13°C° 0 mm 1 m/S 685 mmHg 82%
    19:00 +11°C° 0 mm 1 m/S 685 mmHg 92%
    20:00 +11°C° 0 mm 1 m/S 685 mmHg 92%
    21:00 +11°C° 0 mm 1 m/S 685 mmHg 91%
    22:00 +11°C° 0 mm 1 m/S 685 mmHg 91%
    23:00 +10°C° 0 mm 1 m/S 685 mmHg 90%

    18 Oktober, Donnerstag

    Zeit Temperatur Niederschläge Wind Luftdruck Luftfeuchtigkeit
    00:00 +10°C° 0 mm 1 m/S 685 mmHg 90%
    01:00 +10°C° 0 mm 1 m/S 685 mmHg 89%
    02:00 +10°C° 0 mm 1 m/S 685 mmHg 89%
    03:00 +10°C° 0 mm 1 m/S 684 mmHg 89%
    04:00 +10°C° 0 mm 1 m/S 684 mmHg 89%
    05:00 +10°C° 0 mm 1 m/S 684 mmHg 89%
    06:00 +10°C° 0 mm 1 m/S 684 mmHg 89%
    07:00 +8°C° 0 mm 0 m/S 684 mmHg 89%
    08:00 +11°C° 0 mm 0 m/S 685 mmHg 81%
    09:00 +14°C° 0 mm 0 m/S 685 mmHg 72%
    10:00 +18°C° 0 mm 1 m/S 686 mmHg 63%
    11:00 +19°C° 0 mm 1 m/S 686 mmHg 62%
    12:00 +19°C° 0 mm 1 m/S 686 mmHg 60%
    13:00 +20°C° 0 mm 1 m/S 686 mmHg 58%
    14:00 +19°C° 0 mm 1 m/S 685 mmHg 63%
    15:00 +19°C° 0 mm 1 m/S 685 mmHg 69%
    16:00 +18°C° 0 mm 1 m/S 685 mmHg 74%
    17:00 +15°C° 0 mm 1 m/S 685 mmHg 81%
    18:00 +14°C° 0 mm 1 m/S 685 mmHg 89%
    19:00 +11°C° 0 mm 0 m/S 685 mmHg 96%
    20:00 +11°C° 0 mm 0 m/S 685 mmHg 96%
    21:00 +11°C° 0 mm 0 m/S 685 mmHg 96%
    22:00 +11°C° 0 mm 0 m/S 686 mmHg 96%
    23:00 +10°C° 0 mm 0 m/S 686 mmHg 96%

    19 Oktober, Freitag

    Zeit Temperatur Niederschläge Wind Luftdruck Luftfeuchtigkeit
    00:00 +10°C° 0 mm 0 m/S 686 mmHg 96%
    01:00 +10°C° 0 mm 0 m/S 686 mmHg 96%
    02:00 +9°C° 0 mm 0 m/S 686 mmHg 96%
    03:00 +9°C° 0 mm 0 m/S 685 mmHg 96%
    04:00 +9°C° 0 mm 0 m/S 685 mmHg 96%
    05:00 +9°C° 0 mm 0 m/S 686 mmHg 96%
    06:00 +9°C° 0 mm 0 m/S 686 mmHg 96%
    07:00 +9°C° 0 mm 0 m/S 686 mmHg 96%
    08:00 +11°C° 0 mm 0 m/S 686 mmHg 89%
    09:00 +14°C° 0 mm 1 m/S 687 mmHg 82%
    10:00 +16°C° 0 mm 1 m/S 687 mmHg 75%
    11:00 +18°C° 0 mm 1 m/S 687 mmHg 71%
    12:00 +19°C° 0 mm 1 m/S 688 mmHg 66%
    13:00 +18°C° 0 mm 2 m/S 688 mmHg 62%
    14:00 +18°C° 0 mm 2 m/S 687 mmHg 66%
    15:00 +17°C° 0 mm 2 m/S 687 mmHg 70%
    16:00 +16°C° 0 mm 2 m/S 687 mmHg 74%
    17:00 +15°C° 0 mm 1 m/S 687 mmHg 81%
    18:00 +13°C° 0 mm 1 m/S 687 mmHg 88%
    19:00 +11°C° 0 mm 1 m/S 687 mmHg 96%
    20:00 +11°C° 0 mm 1 m/S 688 mmHg 96%
    21:00 +11°C° 0 mm 1 m/S 688 mmHg 96%
    22:00 +10°C° 0 mm 0 m/S 688 mmHg 96%
    23:00 +9°C° 0 mm 0 m/S 688 mmHg 97%

    20 Oktober, Samstag

    Zeit Temperatur Niederschläge Wind Luftdruck Luftfeuchtigkeit
    00:00 +9°C° 0 mm 0 m/S 688 mmHg 97%
    01:00 +8°C° 0 mm 0 m/S 688 mmHg 97%
    02:00 +9°C° 0 mm 1 m/S 688 mmHg 96%
    03:00 +9°C° 0 mm 1 m/S 688 mmHg 96%
    04:00 +8°C° 0 mm 1 m/S 688 mmHg 96%
    05:00 +8°C° 0 mm 1 m/S 688 mmHg 95%
    06:00 +8°C° 0 mm 1 m/S 688 mmHg 94%
    07:00 +8°C° 0 mm 1 m/S 688 mmHg 94%
    08:00 +11°C° 0 mm 1 m/S 689 mmHg 81%
    09:00 +13°C° 0 mm 1 m/S 689 mmHg 69%
    10:00 +15°C° 0 mm 1 m/S 690 mmHg 56%
    11:00 +16°C° 0 mm 1 m/S 690 mmHg 54%
    12:00 +17°C° 0 mm 2 m/S 690 mmHg 53%
    13:00 +17°C° 0 mm 2 m/S 690 mmHg 51%
    14:00 +16°C° 0 mm 2 m/S 690 mmHg 56%
    15:00 +16°C° 0 mm 2 m/S 690 mmHg 61%
    16:00 +15°C° 0 mm 2 m/S 689 mmHg 66%
    17:00 +13°C° 0 mm 2 m/S 689 mmHg 76%
    18:00 +11°C° 0 mm 1 m/S 690 mmHg 85%
    19:00 +10°C° 0 mm 1 m/S 690 mmHg 94%
    20:00 +9°C° 0 mm 1 m/S 690 mmHg 95%
    21:00 +9°C° 0 mm 1 m/S 690 mmHg 95%
    22:00 +9°C° 0 mm 1 m/S 690 mmHg 95%
    23:00 +8°C° 0 mm 1 m/S 690 mmHg 95%
    Mehr zeigen